Location: ?
(35.4214°N, 139.3011°E)
Time: 22:40:55
(UTC+00:00)

Cosmos 1842 Rocket - Pass Details

Date: 14 July 2020
Orbit: 605 x 634 km, 82.5° (Epoch: 10 August)

Event Time Altitude Azimuth Distance (km) Brightness Sun altitude
Rises 11:22:13 0° 1° (N) 2,866 7.6 -14.9°
Reaches altitude 10° 11:24:32 10° 9° (N) 1,957 6.6 -15.3°
Maximum altitude 11:28:39 41° 80° (E) 876 4.0 -15.9°
Enters shadow 11:30:11 30° 127° (SE) 1,094 4.2 -16.1°
